Miscellaneous Local Product
Issued by NWS Hastings, NE

Home | Current Version | Previous Version | Text Only | Print | Product List | Glossary On
Versions: 1 2 3 4 5 6 7 8 9 10 11 12 13 14 15 16 17 18 19 20 21 22 23 24 25 26 27 28 29 30 31 32 33 34 35 36 37 38 39 40 41 42 43 44 45 46 47 48 49 50
000
AXUS43 KGID 280302
MISGRI

GID CWA HOURLY WEATHER ROUNDUP
NATIONAL WEATHER SERVICE HASTINGS NE
900 PM CST THU NOV 27 2014

NOTE: "FAIR" INDICATES FEW OR NO CLOUDS BELOW 12,000 FEET WITH NO
SIGNIFICANT WEATHER AND/OR OBSTRUCTIONS TO VISIBILITY.

...SOUTH CENTRAL NEBRASKA...

CITY           SKY/WX    TMP DP  RH WIND       PRES   REMARKS
GRAND ISLAND   CLEAR     31  17  56 SE12      30.07F WCI  22
HASTINGS       CLEAR     31  17  56 S12G21    30.05F WCI  22
KEARNEY        CLEAR     25  16  68 SE7       30.04F WCI  17
ORD            CLEAR     28  17  63 SE6       30.04F WCI  22
YORK           CLEAR     28  19  69 S10       30.12F WCI  19
AURORA         CLEAR     29  18  61 SE10      30.09F WCI  20
LEXINGTON      CLEAR     36  22  57 SE8       30.00F WCI  29
HOLDREGE       CLEAR     34  20  57 S12       30.02F WCI  25
HEBRON         CLEAR     34  15  45 S12G18    30.14F WCI  26

...NEBRASKA PANHANDLE...

CITY           SKY/WX    TMP DP  RH WIND       PRES   REMARKS
CHADRON        CLEAR    N/A N/A N/A SW3       29.95S
ALLIANCE       CLEAR     34  26  72 W14       29.97S WCI  25
SCOTTSBLUFF    CLEAR     37  28  70 CALM      29.99S
SIDNEY         CLEAR     36  26  67 W12       30.03S WCI  28

...WESTERN AND NORTH CENTRAL NEBRASKA...

CITY           SKY/WX    TMP DP  RH WIND       PRES   REMARKS
VALENTINE      CLEAR     39  26  59 SW14      29.90F WCI  31
AINSWORTH      CLEAR     36  22  57 S17       29.93F WCI  25
ONEILL         CLEAR     28  19  69 S12       30.01F WCI  18
BROKEN BOW     CLEAR     28  19  69 SE6       30.00F WCI  22
IMPERIAL       CLEAR     42  27  55 W13       30.00F
NORTH PLATTE   CLEAR     29  20  69 CALM      29.99F
MCCOOK         CLEAR     41  26  55 SW10      29.98F

...EASTERN NEBRASKA...

CITY           SKY/WX    TMP DP  RH WIND       PRES   REMARKS
NORFOLK        PTCLDY    21  14  74 SE12      30.11F WCI   9
SO SIOUX CITY  PTCLDY    20  10  65 SE12      30.20F WCI   8
TEKAMAH        CLOUDY    21  12  68 SE14      30.20  WCI   8
COLUMBUS       PTCLDY    23  12  63 SE9       30.14F WCI  13
ALBION         PTCLDY    25  17  71 SE9       30.09F WCI  15
OMAHA EPPLEY   CLEAR     22  14  71 SE12      30.23F WCI  10
OFFUTT AFB     CLEAR     23  15  70 SE9       30.22F WCI  13
MILLARD        CLEAR     24  16  71 SE12      30.21F WCI  12
LINCOLN        CLEAR     27  16  63 SE9       30.19F WCI  18
NEBRASKA CITY  CLEAR     25  15  64 SE13      30.23F WCI  14
BEATRICE       CLEAR     31  20  62 SE10      30.17F WCI  22
FALLS CITY     CLEAR     25  19  78 SE9       30.26F WCI  15

...NORTHERN KANSAS...

CITY           SKY/WX    TMP DP  RH WIND       PRES   REMARKS
GOODLAND       MOCLDY    48  28  46 W13       30.05F
HILL CITY      CLEAR     44  25  47 SW10      30.06F
NORTON         CLEAR     37  19  48 S8        30.02F WCI  31
PHILLIPSBURG   CLEAR     32  21  64 E7        30.07F WCI  26
SMITH CENTER   CLEAR     30  19  64 SE12      30.09F WCI  21
BELOIT         CLEAR     36  18  48 SE10      30.12F WCI  28
HAYS           CLEAR     37  18  44 S12       30.08F WCI  30
RUSSELL        CLEAR     39  22  50 S18       30.07F WCI  30
CONCORDIA      CLEAR     36  18  48 S15       30.15F WCI  27
SALINA         CLEAR     36  19  50 SE12      30.17F WCI  28
TOPEKA         CLEAR     35  21  56 SE10      30.28F WCI  27



USA.gov is the U.S. government's official web portal to all federal, state and local government web resources and services.